Montgomery, AL

6:06 AM CDT on September 29, 2016 (GMT -0500)
Maxwell Air Force Base

Weather History for KMXF - January, 2013

Change the Weather History Date:

Friday, January 18, 2013

  Actual Average Record
Temperature  
Mean Temperature 46 °F -  
Max Temperature 57 °F 56 °F 71 °F (1999)
Min Temperature 34 °F 36 °F 19 °F (2003)
Degree Days  
Heating Degree Days 20    
Moisture  
Dew Point 30 °F    
Average Humidity 62    
Maximum Humidity 92    
Minimum Humidity 31    
Precipitation  
Precipitation 0.00 in - - ()
Sea Level Pressure  
Sea Level Pressure 30.45 in    
Wind  
Wind Speed 8 mph (NNE)    
Max Wind Speed 14 mph    
Max Gust Speed 22 mph    
Visibility 9 miles    
Events      
Averages and records for this station are not official NWS values.
T = Trace of Precipitation, MM = Missing Value Source: NWS Daily Summary

Daily Weather History Graph

Daily Weather History Graph

Search for Another Location

Airport or City:

Trip Planner

Search our weather history database for the weather conditions in past years. The results will help you decide how hot, cold, wet, or windy it might be!

Date:

Astronomy

Jan. 18, 2013 Rise Set
Actual Time 6:46 AM CST 5:05 PM CST
Civil Twilight 6:19 AM CST 5:32 PM CST
Nautical Twilight 5:49 AM CST 6:02 PM CST
Astronomical Twilight 5:20 AM CST 6:31 PM CST
Moon 10:52 AM CST (1/18) No Moon Set
Length of Visible Light 11h 12m
Length of Day
10h 19m
Waxing Crescent, 47% of the Moon is Illuminated
Jan 18
Waxing Crescent
Jan 18
First Quarter
Jan 26
Full
Feb 3
Last Quarter
Feb 10
New

Hourly Weather History & Observations

Time (CST) Temp. Windchill Dew Point Humidity Pressure Visibility Wind Dir Wind Speed Gust Speed Precip Events Conditions
12:55 AM 40.1 °F 33.2 °F 31.6 °F 72% 30.35 in 10.0 mi North 11.5 mph 21.9 mph N/A   Clear
1:55 AM 39.0 °F 31.8 °F 31.1 °F 73% 30.37 in 10.0 mi North 11.5 mph - N/A   Clear
2:55 AM 38.3 °F 30.1 °F 30.0 °F 72% 30.37 in 10.0 mi North 13.8 mph - N/A   Clear
3:55 AM 36.7 °F 31.2 °F 28.9 °F 74% 30.39 in 10.0 mi North 6.9 mph - N/A   Clear
4:55 AM 36.0 °F 29.6 °F 28.2 °F 73% 30.41 in 10.0 mi North 8.1 mph - N/A   Clear
5:55 AM 35.4 °F 30.5 °F 27.9 °F 74% 30.45 in 10.0 mi North 5.8 mph - N/A   Clear
6:55 AM 34.9 °F 29.0 °F 28.0 °F 76% 30.47 in 10.0 mi North 6.9 mph - N/A   Clear
7:55 AM 38.7 °F 33.6 °F 29.8 °F 71% 30.51 in 10.0 mi NNE 6.9 mph - N/A   Clear
8:55 AM 41.7 °F 36.1 °F 30.0 °F 63% 30.54 in 10.0 mi North 9.2 mph - N/A   Clear
9:55 AM 44.8 °F 40.4 °F 29.7 °F 55% 30.55 in 10.0 mi North 8.1 mph - N/A   Clear
10:55 AM 47.8 °F - 29.1 °F 48% 30.54 in 10.0 mi NE 4.6 mph - N/A   Clear
11:55 AM 50.7 °F - 29.7 °F 44% 30.50 in 10.0 mi Variable 4.6 mph - N/A   Clear
12:55 PM 53.2 °F - 30.0 °F 41% 30.48 in 10.0 mi NNE 3.5 mph - N/A   Clear
1:55 PM 55.2 °F - 28.9 °F 37% 30.46 in 10.0 mi NNE 6.9 mph - N/A   Clear
2:55 PM 56.8 °F - 27.0 °F 32% 30.44 in 10.0 mi ENE 6.9 mph - N/A   Clear
3:55 PM 56.8 °F - 26.8 °F 32% 30.43 in 4.0 mi NE 5.8 mph - N/A   Haze
3:59 PM 57.2 °F - 26.6 °F 31% 30.45 in 10.0 mi NE 5.8 mph - N/A   Clear
4:55 PM 53.8 °F - 27.0 °F 36% 30.43 in 10.0 mi East 4.6 mph - N/A   Clear
5:55 PM 47.8 °F - 32.0 °F 54% 30.45 in 10.0 mi Calm Calm - N/A   Clear
6:55 PM 42.6 °F - 34.7 °F 74% 30.45 in 8.0 mi Calm Calm - N/A   Clear
7:55 PM 39.6 °F - 34.0 °F 80% 30.45 in 7.0 mi Calm Calm - N/A   Clear
8:55 PM 38.7 °F 36.3 °F 36.5 °F 92% 30.45 in 8.0 mi NNW 3.5 mph - N/A   Clear
9:55 PM 37.8 °F 34.2 °F 35.1 °F 90% 30.44 in 9.0 mi East 4.6 mph - N/A   Clear
10:55 PM 38.8 °F 35.4 °F 33.8 °F 82% 30.42 in 10.0 mi ENE 4.6 mph - N/A   Clear
11:55 PM 36.7 °F - 32.9 °F 86% 30.42 in 10.0 mi Calm Calm - N/A   Clear